Wind_Speed
25 26 27 28 30 30 28 26 25 24 24 24 25 25 24 24 24 24 21 19 18 18 18 18 18 18 17 17 16 16 15 15 14 13 13 12 12 11 10 10 10 10 10 9 9 8 8 8 7
26 27 28 29 31 30 27 26 27 26 26 25 26 26 26 26 26 25 23 22 21 21 20 20 20 20 19 18 18 17 16 16 16 15 14 14 13 12 12 11 10 10 10 10 9 9 9 8 8
27 28 29 30 31 29 27 28 29 28 27 27 27 28 27 27 27 26 25 24 23 23 22 22 22 21 21 20 20 19 18 17 17 17 16 15 14 14 13 12 11 11 11 10 10 10 10 9 9
28 29 31 31 30 28 29 30 30 29 29 29 29 29 28 28 27 26 26 26 25 24 24 24 24 23 22 22 21 20 20 19 18 18 18 16 16 15 14 13 13 12 12 11 11 11 10 10 10
30 31 32 32 30 29 30 31 31 31 31 30 31 31 30 29 28 27 28 27 27 26 25 25 25 25 24 24 23 22 21 21 20 20 19 18 17 17 16 15 14 14 13 12 12 12 11 11 11
32 33 33 32 31 30 31 32 33 33 32 32 32 32 32 31 30 29 29 29 28 27 27 26 26 26 26 25 25 24 23 22 22 21 21 20 19 18 17 17 16 15 14 13 13 12 12 12 12
34 35 35 33 32 32 31 33 33 34 34 33 33 34 33 32 32 31 30 30 29 29 28 28 27 27 27 27 26 26 25 24 24 23 23 22 21 20 19 19 18 17 16 15 15 14 14 13 13
36 36 35 35 34 33 34 35 35 35 35 35 35 35 35 34 33 32 32 32 31 30 29 29 28 28 28 28 28 27 26 26 25 24 24 23 23 22 21 20 20 19 18 17 16 16 16 15 14
38 38 36 35 36 35 36 37 36 35 36 36 37 37 36 35 35 34 33 33 33 32 31 31 30 29 29 29 29 29 28 27 27 26 25 25 24 24 23 22 22 21 20 19 18 18 17 16 16
39 39 36 36 37 37 37 38 37 37 37 38 39 38 37 37 37 36 36 35 34 33 32 32 32 31 31 30 30 30 30 29 28 27 27 26 26 25 24 24 23 23 22 21 20 20 19 18 18
40 39 38 39 40 40 40 39 39 39 39 39 40 39 38 38 38 38 37 37 36 35 34 33 33 33 32 31 31 32 31 31 30 29 29 28 27 26 26 25 25 24 24 23 22 22 21 20 20
41 40 40 41 42 42 42 41 41 40 41 41 41 41 40 40 39 39 38 38 38 37 36 35 35 34 34 33 33 33 33 32 31 31 31 30 28 28 27 27 26 25 25 25 24 24 23 23 22
42 42 42 43 43 44 44 44 43 42 42 43 43 42 42 42 41 40 39 39 39 39 38 37 36 36 35 35 34 34 34 33 32 32 31 31 30 29 29 28 28 27 26 26 25 25 24 24 23
42 43 44 45 45 45 46 46 46 44 44 45 45 45 44 43 42 41 41 41 40 40 40 39 38 38 37 36 36 35 35 35 34 33 32 32 32 31 30 30 29 28 27 27 26 26 25 25 25
42 44 45 46 46 46 47 48 47 46 47 46 46 46 46 45 45 44 42 42 42 41 41 41 41 40 39 38 37 37 36 36 35 34 34 33 33 32 32 31 31 30 29 28 27 27 26 26 25
43 44 46 45 46 47 48 48 47 47 48 48 48 47 48 48 47 46 45 44 44 43 43 42 42 42 41 40 39 38 37 37 37 36 35 34 34 33 33 32 31 31 30 29 29 28 27 26 26
42 44 44 45 46 47 48 48 48 48 48 48 48 48 49 49 49 48 47 46 46 45 44 44 44 43 43 42 41 40 39 38 38 37 37 35 34 34 34 33 32 32 31 31 30 29 29 28 27
40 41 42 43 44 47 48 48 48 48 48 48 49 50 50 49 50 50 50 49 48 47 47 46 45 45 44 44 42 41 40 39 39 38 37 37 36 35 35 34 33 33 32 32 31 31 30 29 28
39 40 41 41 43 46 48 48 48 48 48 49 49 50 50 50 50 50 51 51 50 49 49 47 46 47 46 45 44 42 41 40 39 39 37 37 37 36 36 36 35 34 33 33 33 33 32 31 30
38 39 40 40 42 44 47 49 48 49 49 49 49 50 50 50 51 50 51 51 51 51 50 49 48 47 47 46 45 44 43 42 41 40 39 38 37 37 37 37 36 35 34 34 34 34 33 32 32
36 38 38 39 40 42 43 46 47 48 49 49 49 50 50 51 50 50 51 51 51 51 52 51 51 50 49 48 46 45 44 43 42 41 40 39 39 37 36 36 37 36 36 35 35 35 34 33 33
34 35 36 37 38 39 40 43 45 46 47 48 49 49 50 51 51 51 51 52 52 52 52 52 52 52 51 50 48 47 45 44 42 42 42 41 40 40 38 37 38 38 37 36 36 35 35 34 34
33 32 33 35 36 38 38 41 43 44 45 47 49 50 50 51 52 52 52 52 52 53 53 53 53 53 52 52 50 49 47 45 44 44 43 42 41 40 39 38 38 38 38 37 37 36 36 35 35
31 31 31 32 34 37 36 39 41 42 44 46 47 49 50 52 52 53 53 52 52 52 53 53 53 53 53 53 53 51 49 47 46 45 44 43 42 41 40 39 39 39 38 38 37 37 36 36 36
28 28 28 29 31 34 34 36 39 40 42 44 46 47 48 51 52 53 53 53 52 52 52 53 53 53 53 54 53 52 51 49 48 47 46 45 45 43 42 41 41 41 40 39 38 38 37 36 36
26 26 26 28 29 31 32 35 37 38 40 42 43 45 47 49 51 52 52 52 52 52 53 53 54 54 54 54 54 53 52 51 49 48 47 47 46 45 44 43 43 43 42 41 40 39 38 37 37
23 24 25 27 28 29 30 33 36 37 38 40 41 43 46 48 50 51 52 52 52 52 53 54 54 54 55 54 54 54 54 53 51 49 48 47 47 46 45 45 45 44 44 43 42 41 39 38 38
22 22 22 23 26 27 27 30 34 35 36 37 39 41 43 46 49 50 51 52 53 53 53 53 55 55 55 55 55 55 54 54 53 52 49 49 48 47 47 46 46 46 46 45 44 43 42 40 39
22 22 23 23 24 26 28 30 32 34 35 36 37 39 41 43 46 49 51 51 52 53 53 54 54 55 55 55 55 56 55 54 54 54 52 51 50 48 47 47 48 47 47 46 46 44 43 42 42
21 21 22 23 23 25 28 30 31 33 35 36 38 39 40 41 44 47 50 51 52 53 53 53 54 55 55 56 56 56 56 56 55 54 52 51 51 50 49 47 48 48 48 47 46 46 45 44 43
Wind_Direction
250 248 246 245 244 244 244 243 242 240 237 236 237 239 239 240 240 242 241 239 236 234 233 231 231 231 230 229 228 226 224 222 220 219 217 214 213 214 214 211 208 204 204 204 205 204 202 202 201
250 248 247 245 245 245 244 243 242 240 239 238 239 239 239 240 241 242 242 240 238 236 235 233 232 231 230 229 229 229 226 224 223 222 221 219 218 218 218 217 215 212 210 211 213 213 211 208 208
250 249 248 247 246 246 245 243 242 240 240 239 239 239 240 239 240 240 241 240 238 237 236 234 233 231 230 230 230 231 229 227 225 223 223 223 222 223 222 220 219 216 215 216 218 219 219 216 213
251 249 249 249 248 246 244 243 244 242 240 240 239 239 239 240 241 240 240 240 238 237 236 235 234 232 231 230 231 231 230 229 228 226 225 226 225 224 224 223 222 221 221 222 222 222 223 222 220
252 250 250 250 248 246 245 244 244 242 241 240 239 239 239 240 240 239 239 239 238 237 236 236 234 233 232 231 231 231 231 230 229 228 228 228 227 226 226 226 225 226 225 225 224 223 223 223 222
253 252 251 251 248 246 245 244 244 243 241 241 240 240 240 239 239 239 239 238 238 238 237 236 235 234 234 233 233 232 231 230 230 229 230 230 229 228 228 229 229 229 228 229 228 225 225 226 226
255 254 253 251 249 246 245 245 245 244 243 242 242 241 240 240 239 239 239 239 239 239 238 237 236 235 235 234 233 233 233 232 232 232 232 232 232 231 232 232 232 232 232 232 232 231 231 231 232
256 254 252 251 249 247 246 246 245 244 243 242 242 241 240 240 240 239 239 239 239 239 238 238 237 237 236 235 234 234 234 234 234 234 234 233 234 234 234 234 234 234 234 234 236 237 237 238 239
255 254 253 252 250 248 247 246 245 244 243 242 241 241 240 240 240 239 239 239 240 240 239 239 238 237 237 236 235 234 234 234 235 236 236 235 235 235 236 236 236 237 237 237 238 240 242 242 245
255 254 253 252 251 249 247 246 245 244 243 242 241 240 240 240 240 240 240 240 240 240 240 239 238 237 237 236 236 235 234 235 236 237 237 236 237 237 237 238 238 239 240 241 241 242 244 246 248
256 255 253 252 250 249 248 247 246 244 243 242 242 241 240 240 240 240 239 239 239 239 239 239 237 237 237 236 236 236 235 235 237 237 238 237 238 238 239 240 241 241 242 243 243 243 246 248 250
256 254 253 251 250 249 247 247 246 244 243 243 241 241 240 239 239 239 239 238 238 239 239 239 238 237 237 237 236 236 236 236 236 237 238 238 238 239 239 240 241 242 243 244 245 246 247 248 250
256 254 252 250 250 249 248 246 246 244 243 242 241 240 240 239 239 238 238 238 238 238 238 239 238 237 237 238 238 237 236 236 236 236 237 237 238 239 240 240 242 243 244 245 246 247 249 249 250
257 254 252 250 249 249 248 247 245 243 243 242 241 240 240 239 239 238 237 237 237 237 238 238 237 237 237 238 239 239 237 236 236 237 238 238 238 239 240 241 242 243 245 246 246 247 248 249 250
257 254 252 251 250 249 249 247 245 243 243 242 241 240 239 239 238 237 237 236 236 237 237 238 237 236 236 237 238 239 238 236 236 237 238 239 239 240 240 241 242 243 244 245 247 248 249 249 250
258 256 254 252 251 249 249 247 246 244 243 242 241 240 240 239 238 237 237 236 236 236 236 237 237 236 236 236 237 237 238 237 238 238 238 239 239 240 241 242 242 243 245 245 246 247 249 250 251
259 258 256 253 251 249 248 248 246 245 243 242 241 240 240 239 238 237 237 236 236 235 235 236 236 236 235 235 236 237 237 237 238 239 239 239 240 241 242 242 243 245 245 246 247 248 249 251 252
260 259 257 254 251 249 247 246 246 245 244 242 241 240 239 238 238 238 237 236 235 234 234 235 235 235 234 234 235 236 237 237 238 239 240 240 240 242 243 243 245 244 245 246 248 248 250 251 252
260 258 256 254 252 250 247 246 246 245 244 242 241 240 239 238 238 238 237 237 236 235 234 234 234 235 235 235 235 235 237 237 238 239 240 240 241 242 244 244 244 244 244 245 246 247 249 251 252
259 258 256 253 252 250 248 246 244 244 243 243 241 240 240 239 238 238 238 237 237 236 236 235 235 234 235 235 235 235 236 237 237 238 239 241 242 242 243 244 244 244 243 244 246 247 248 250 252
261 259 256 255 252 251 250 247 243 243 242 242 241 241 239 239 238 238 238 237 237 237 237 236 236 236 235 236 236 236 236 237 238 239 240 241 242 243 244 245 244 243 244 245 246 248 249 251 252
262 260 258 255 253 250 249 250 244 243 243 242 241 241 240 238 237 237 237 237 237 237 237 237 236 236 236 236 236 236 236 237 239 240 241 241 242 243 245 246 244 243 244 244 246 247 249 250 252
263 261 260 257 253 251 248 249 247 245 243 242 242 241 240 238 237 237 236 237 237 237 237 236 236 236 236 237 236 236 237 237 237 239 240 241 242 243 244 244 244 243 244 245 246 247 249 250 251
265 263 262 259 255 252 248 248 249 247 246 244 243 242 241 240 238 237 237 236 236 237 237 236 236 236 236 237 237 237 237 237 237 239 240 241 242 243 243 244 244 243 244 245 246 248 249 250 251
265 262 262 260 256 253 249 249 249 249 247 245 243 243 242 240 238 238 237 236 236 236 236 236 235 235 235 236 237 237 237 237 238 239 240 241 241 242 243 244 244 244 244 245 246 248 249 249 251
268 264 259 259 258 254 248 248 248 248 247 245 244 242 241 240 238 237 237 236 236 236 235 235 235 235 235 235 235 236 236 237 238 239 241 242 242 242 242 243 244 244 244 245 246 248 249 250 251
269 264 260 259 257 256 252 251 248 248 248 247 247 244 242 240 239 238 237 236 236 235 235 235 235 235 235 235 235 236 236 237 237 238 239 241 241 242 243 243 244 244 244 244 246 248 249 250 252
267 263 261 259 255 253 251 251 251 249 249 248 248 246 243 241 239 239 238 237 237 236 236 236 235 235 235 235 234 235 236 236 237 237 238 240 241 242 243 244 244 245 245 245 246 247 248 250 253
268 264 261 259 256 254 253 251 249 249 250 249 248 246 244 242 240 239 238 237 237 237 236 236 236 235 235 235 235 235 235 236 237 238 239 240 241 242 243 244 244 244 245 245 246 247 248 250 252
271 266 264 262 260 259 257 255 251 252 252 252 250 248 246 243 241 239 238 237 237 236 236 236 236 236 235 235 235 235 236 236 237 238 238 239 240 241 242 244 244 244 244 245 246 247 248 250 251
Height
5795 5795 5797 5798 5800 5802 5804 5808 5810 5812 5814 5816 5818 5820 5822 5824 5826 5829 5830 5831 5833 5835 5836 5838 5840 5842 5843 5845 5847 5849 5850 5852 5853 5855 5856 5857 5859 5860 5861 5862 5863 5864 5865 5866 5868 5868 5869 5870 5872
5789 5791 5792 5793 5794 5796 5801 5803 5805 5808 5810 5813 5814 5816 5818 5820 5821 5824 5826 5828 5830 5832 5833 5835 5837 5839 5841 5843 5845 5846 5848 5850 5851 5853 5855 5856 5857 5859 5860 5861 5862 5863 5864 5866 5867 5868 5869 5870 5871
5784 5785 5786 5787 5789 5793 5797 5798 5800 5802 5805 5808 5810 5812 5814 5815 5817 5819 5822 5824 5826 5828 5830 5832 5834 5836 5838 5840 5842 5844 5846 5847 5849 5851 5853 5854 5856 5857 5859 5860 5861 5862 5863 5865 5866 5867 5868 5869 5870
5778 5779 5781 5783 5785 5789 5791 5793 5794 5797 5800 5802 5805 5807 5809 5811 5813 5816 5818 5820 5822 5824 5827 5829 5830 5833 5835 5837 5839 5841 5843 5845 5847 5849 5851 5852 5854 5856 5857 5858 5860 5861 5862 5863 5864 5866 5867 5868 5869
5771 5773 5774 5776 5780 5783 5785 5787 5789 5791 5794 5797 5799 5802 5804 5807 5809 5811 5813 5815 5818 5820 5823 5825 5827 5829 5831 5834 5836 5838 5840 5842 5844 5846 5848 5850 5852 5853 5855 5856 5858 5859 5861 5862 5863 5864 5865 5867 5868
5764 5766 5767 5770 5774 5777 5779 5780 5783 5785 5788 5791 5793 5796 5798 5801 5804 5806 5808 5810 5813 5816 5818 5820 5823 5825 5827 5830 5832 5834 5837 5839 5841 5843 5845 5847 5849 5851 5853 5854 5856 5857 5859 5860 5861 5862 5864 5865 5866
5757 5758 5760 5764 5767 5770 5773 5774 5776 5779 5781 5784 5787 5790 5792 5795 5798 5801 5803 5805 5808 5811 5813 5816 5818 5821 5823 5826 5828 5831 5833 5835 5838 5840 5842 5844 5846 5848 5850 5852 5853 5855 5857 5858 5860 5861 5862 5863 5865
5748 5750 5752 5756 5759 5763 5765 5766 5769 5772 5775 5777 5780 5783 5786 5789 5792 5795 5797 5800 5803 5805 5808 5811 5814 5816 5819 5821 5824 5826 5829 5831 5834 5836 5838 5840 5843 5845 5847 5849 5851 5852 5854 5856 5857 5859 5860 5861 5862
5739 5741 5744 5749 5751 5755 5756 5758 5761 5764 5767 5770 5772 5775 5779 5782 5785 5788 5791 5794 5797 5800 5803 5806 5808 5811 5814 5816 5819 5822 5824 5827 5829 5832 5834 5837 5839 5841 5843 5845 5847 5849 5851 5853 5854 5856 5857 5859 5860
5729 5732 5738 5741 5743 5745 5747 5750 5753 5756 5759 5762 5765 5768 5771 5775 5778 5781 5785 5788 5791 5794 5797 5800 5803 5805 5808 5811 5814 5816 5819 5822 5825 5828 5830 5832 5835 5837 5839 5841 5843 5845 5847 5849 5851 5853 5854 5856 5857
5720 5724 5729 5731 5732 5735 5738 5741 5744 5747 5751 5754 5757 5761 5764 5767 5771 5774 5778 5781 5784 5787 5790 5793 5796 5799 5802 5805 5808 5811 5814 5817 5820 5823 5825 5828 5830 5833 5835 5837 5839 5841 5844 5845 5847 5849 5851 5852 5854
5710 5715 5718 5720 5722 5725 5727 5731 5734 5738 5742 5744 5748 5752 5755 5759 5762 5766 5770 5773 5777 5780 5783 5787 5790 5793 5796 5799 5802 5805 5808 5811 5814 5817 5820 5822 5825 5828 5830 5833 5835 5837 5839 5841 5843 5845 5847 5848 5850
5699 5703 5706 5708 5711 5714 5717 5720 5724 5728 5732 5734 5738 5742 5746 5750 5754 5758 5762 5765 5769 5773 5776 5779 5783 5786 5789 5792 5795 5799 5802 5805 5808 5811 5814 5816 5819 5822 5825 5828 5830 5832 5834 5836 5838 5840 5842 5844 5845
5688 5691 5694 5697 5700 5702 5705 5709 5713 5718 5721 5724 5728 5732 5736 5741 5745 5749 5753 5757 5761 5764 5768 5771 5775 5778 5782 5785 5789 5792 5795 5798 5802 5805 5808 5811 5813 5816 5819 5822 5824 5827 5829 5831 5833 5835 5837 5839 5841
5675 5678 5681 5685 5687 5691 5693 5697 5702 5707 5709 5713 5717 5722 5726 5731 5735 5739 5744 5748 5752 5756 5759 5763 5767 5770 5774 5777 5781 5784 5788 5791 5795 5798 5801 5804 5807 5810 5813 5816 5819 5821 5823 5826 5828 5830 5832 5834 5836
5662 5665 5668 5673 5675 5677 5681 5685 5691 5693 5697 5702 5706 5711 5715 5720 5724 5729 5734 5738 5742 5747 5750 5754 5758 5762 5766 5770 5773 5777 5780 5784 5788 5791 5794 5797 5800 5803 5807 5810 5813 5815 5817 5820 5822 5824 5827 5828 5830
5649 5652 5656 5660 5662 5664 5667 5672 5677 5680 5685 5689 5694 5699 5703 5708 5713 5718 5723 5728 5732 5737 5741 5744 5748 5753 5757 5761 5765 5769 5772 5776 5780 5783 5787 5790 5793 5796 5799 5803 5806 5809 5811 5814 5816 5819 5821 5823 5825
5639 5641 5643 5647 5649 5651 5654 5659 5663 5668 5672 5676 5681 5686 5691 5696 5702 5707 5712 5716 5721 5726 5731 5735 5739 5743 5748 5752 5756 5760 5764 5768 5772 5776 5779 5783 5786 5789 5792 5796 5799 5801 5804 5807 5810 5812 5814 5817 5819
5627 5628 5631 5635 5636 5638 5642 5646 5651 5655 5659 5663 5667 5673 5679 5684 5689 5694 5700 5705 5710 5715 5720 5725 5729 5734 5738 5743 5747 5752 5756 5760 5764 5768 5771 5775 5779 5782 5785 5788 5791 5794 5797 5800 5803 5805 5808 5810 5812
5616 5617 5620 5623 5624 5626 5630 5634 5638 5642 5646 5650 5655 5660 5666 5672 5677 5682 5688 5693 5698 5704 5709 5714 5719 5724 5729 5733 5738 5743 5747 5751 5755 5759 5763 5767 5771 5774 5777 5780 5784 5787 5790 5793 5795 5798 5800 5803 5805
5605 5606 5608 5610 5613 5615 5618 5621 5626 5629 5633 5638 5643 5648 5654 5659 5665 5671 5676 5681 5687 5692 5698 5703 5708 5713 5718 5723 5728 5733 5737 5742 5747 5751 5755 5758 5762 5765 5768 5772 5775 5779 5782 5785 5787 5790 5793 5795 5798
5595 5597 5598 5599 5601 5604 5608 5609 5614 5617 5621 5626 5631 5636 5641 5647 5653 5658 5664 5670 5675 5681 5686 5691 5697 5702 5708 5713 5718 5723 5728 5733 5738 5742 5746 5749 5753 5757 5760 5763 5767 5770 5773 5776 5779 5782 5785 5787 5790
5587 5587 5588 5589 5591 5593 5597 5598 5602 5605 5609 5615 5619 5624 5630 5635 5640 5646 5652 5657 5663 5669 5674 5680 5685 5691 5697 5702 5707 5713 5718 5724 5728 5732 5736 5740 5744 5748 5751 5755 5758 5762 5765 5768 5771 5774 5777 5779 5782
5578 5579 5579 5580 5580 5582 5587 5589 5591 5594 5598 5603 5608 5612 5617 5622 5628 5633 5639 5645 5651 5657 5662 5668 5673 5679 5685 5691 5696 5702 5708 5713 5718 5722 5726 5731 5735 5739 5743 5746 5750 5753 5756 5760 5763 5766 5768 5771 5774
5569 5570 5570 5570 5571 5573 5578 5578 5580 5584 5587 5591 5596 5601 5605 5610 5615 5621 5626 5633 5639 5645 5650 5656 5662 5668 5673 5679 5685 5691 5697 5702 5707 5712 5717 5721 5725 5729 5734 5737 5741 5744 5748 5751 5754 5757 5760 5763 5765
5561 5562 5563 5563 5563 5566 5568 5568 5572 5575 5578 5581 5585 5589 5593 5597 5603 5608 5614 5620 5626 5632 5638 5644 5650 5656 5661 5668 5674 5680 5686 5691 5696 5702 5706 5711 5715 5719 5723 5727 5731 5735 5739 5742 5745 5748 5751 5754 5757
5554 5554 5555 5556 5556 5558 5559 5561 5563 5565 5568 5571 5574 5578 5582 5586 5591 5597 5602 5608 5614 5620 5626 5632 5638 5643 5649 5655 5662 5668 5674 5680 5685 5691 5695 5700 5705 5709 5713 5717 5721 5725 5729 5733 5736 5739 5742 5745 5748
5548 5548 5548 5548 5548 5549 5551 5553 5555 5557 5559 5562 5564 5568 5572 5576 5580 5585 5591 5596 5602 5608 5614 5619 5625 5631 5637 5643 5649 5655 5662 5668 5673 5679 5684 5689 5694 5698 5703 5707 5711 5715 5719 5723 5726 5730 5733 5736 5739
5541 5542 5541 5542 5542 5543 5543 5547 5547 5549 5550 5553 5555 5558 5562 5566 5570 5574 5579 5584 5590 5595 5601 5607 5613 5619 5624 5630 5636 5643 5649 5655 5661 5667 5673 5678 5683 5687 5692 5696 5700 5704 5708 5712 5716 5720 5723 5726 5729
5535 5535 5536 5537 5536 5536 5536 5540 5539 5541 5542 5544 5546 5549 5552 5555 5559 5563 5568 5573 5578 5583 5589 5595 5600 5606 5612 5618 5624 5630 5637 5643 5649 5655 5661 5666 5671 5676 5681 5685 5689 5693 5697 5701 5706 5709 5713 5716 5719